DW6120 Weather Reports


time (UTC)temp
C
wind
direction
speed
KPH
gust
KPH
rain 1hr
cm
rain 24hr
cm
rain mn
cm
humidity
%
barometer
mb
20260502123059 7 93 9.7 12.9 0.00 0.00 0.00 42 1018.8
20260502121604 7 94 8.0 12.9 0.00 0.00 0.00 43 1018.8
20260502120113 7 80 4.8 12.9 0.00 0.00 0.00 44 1018.8
20260502114609 7 101 8.0 12.9 0.00 0.00 0.00 44 1018.8
20260502113113 7 107 9.7 12.9 0.00 0.00 0.00 44 1018.8
20260502111603 7 98 6.4 8.0 0.00 0.00 0.00 44 1018.9
20260502110104 7 76 4.8 12.9 0.00 0.00 0.00 44 1019.0
20260502104552 7 92 4.8 11.3 0.00 0.00 0.00 43 1019.1
20260502103111 8 146 3.2 11.3 0.00 0.00 0.00 42 1018.9
20260502101557 8 96 6.4 11.3 0.00 0.00 0.00 42 1018.8
20260502090107 8 94 9.7 14.5 0.00 0.00 0.00 43 1018.8
20260502070035 8 94 8.0 14.5 0.00 0.00 0.00 42 1019.4
20260502064537 8 83 8.0 12.9 0.00 0.00 0.00 43 1019.5
20260502063039 8 123 4.8 9.7 0.00 0.00 0.00 44 1019.4
20260502061529 8 73 8.0 16.1 0.00 0.00 0.00 44 1019.3
20260502060029 8 94 6.4 11.3 0.00 0.00 0.00 46 1019.2
20260502054538 8 95 8.0 12.9 0.00 0.00 0.00 47 1019.2
20260502053029 8 101 8.0 16.1 0.00 0.00 0.00 46 1019.1
20260502051526 8 94 9.7 14.5 0.00 0.00 0.00 47 1019.1
20260502050028 8 98 9.7 12.9 0.00 0.00 0.00 48 1019.1
20260502044528 8 90 6.4 11.3 0.00 0.00 0.00 50 1019.1
20260502043029 8 111 9.7 12.9 0.00 0.00 0.00 48 1019.1
20260502041532 9 145 3.2 6.4 0.00 0.00 0.00 48 1018.9
20260502040031 9 153 1.6 6.4 0.00 0.00 0.00 49 1018.7
20260502034529 10 115 4.8 9.7 0.00 0.00 0.00 47 1018.5
20260502033037 10 80 3.2 14.5 0.00 0.00 0.00 47 1018.3
20260502031528 10 88 3.2 6.4 0.00 0.00 0.00 47 1018.2
20260502030024 11 19 1.6 4.8 0.00 0.00 0.00 44 1018.1
20260502024522 11 360 3.2 9.7 0.00 0.00 0.00 43 1017.8
20260502023022 12 61 3.2 6.4 0.00 0.00 0.00 40 1017.7
20260502021521 13 349 1.6 4.8 0.00 0.00 0.00 36 1017.7
20260502020024 14 26 3.2 11.3 0.00 0.00 0.00 35 1017.7
20260502014524 14 309 6.4 12.9 0.00 0.00 0.00 34 1017.5
20260502013023 15 330 4.8 12.9 0.00 0.00 0.00 35 1017.4
20260502011523 15 286 8.0 14.5 0.00 0.00 0.00 35 1017.3
20260502010025 15 336 8.0 12.9 0.00 0.00 0.00 35 1017.3
20260502004523 15 324 9.7 17.7 0.00 0.00 0.00 35 1017.3
20260502003027 15 311 8.0 22.5 0.00 0.00 0.00 35 1017.3
20260502001525 15 5 8.0 19.3 0.00 0.00 0.00 34 1017.4
20260502000021 15 302 11.3 22.5 0.00 0.00 0.00 34 1017.4
20260501234520 15 24 8.0 17.7 0.00 0.00 0.00 33 1017.5
20260501233020 15 355 11.3 22.5 0.00 0.00 0.00 33 1017.6
20260501231519 15 313 9.7 19.3 0.00 0.00 0.00 33 1017.6
20260501230019 15 310 6.4 17.7 0.00 0.00 0.00 33 1017.6
20260501224521 15 268 9.7 24.1 0.00 0.00 0.00 31 1017.8
20260501223033 15 275 6.4 17.7 0.00 0.00 0.00 31 1017.8
20260501221518 15 21 0.0 16.1 0.00 0.00 0.00 30 1017.9
20260501220018 15 187 6.4 11.3 0.00 0.00 0.00 31 1017.9
20260501214527 15 315 6.4 14.5 0.00 0.00 0.00 31 1018.3
20260501213018 15 18 4.8 19.3 0.00 0.00 0.00 31 1018.5
20260501211517 15 13 9.7 25.7 0.00 0.00 0.00 31 1018.6
20260501210018 15 32 6.4 19.3 0.00 0.00 0.00 29 1018.7
20260501204517 14 278 1.6 16.1 0.00 0.00 0.00 32 1018.7
20260501203025 15 277 3.2 9.7 0.00 0.00 0.00 31 1018.7
20260501201515 14 322 11.3 19.3 0.00 0.00 0.00 31 1018.6
20260501200015 13 331 9.7 24.1 0.00 0.00 0.00 32 1018.7
20260501194515 14 294 8.0 12.9 0.00 0.00 0.00 30 1018.8
20260501193014 15 260 6.4 14.5 0.00 0.00 0.00 29 1018.9
20260501191511 15 164 1.6 11.3 0.00 0.00 0.00 31 1019.1
20260501190012 13 223 8.0 17.7 0.00 0.00 0.00 33 1019.3
20260501184510 15 215 4.8 14.5 0.00 0.00 0.00 34 1019.3
20260501183007 13 248 1.6 9.7 0.00 0.00 0.00 36 1019.5
20260501181506 12 229 0.0 12.9 0.00 0.00 0.00 36 1019.7
20260501180009 12 286 6.4 12.9 0.00 0.00 0.00 38 1019.8
20260501174505 12 302 4.8 12.9 0.00 0.00 0.00 38 1019.8
20260501173006 11 258 3.2 14.5 0.00 0.00 0.00 39 1020.0
20260501171507 12 297 8.0 12.9 0.00 0.00 0.00 37 1020.0
20260501170002 13 198 3.2 8.0 0.00 0.00 0.00 37 1020.0
20260501164502 13 59 4.8 12.9 0.00 0.00 0.00 37 1020.0
20260501163103 12 217 4.8 8.0 0.00 0.00 0.00 37 1020.1
20260501161559 12 185 3.2 6.4 0.00 0.00 0.00 36 1020.0
20260501160056 12 185 1.6 6.4 0.00 0.00 0.00 39 1020.1
20260501154555 11 185 1.6 6.4 0.00 0.00 0.00 42 1020.0
20260501153103 10 158 3.2 6.4 0.00 0.00 0.00 42 1020.0
20260501151557 9 111 1.6 4.8 0.00 0.00 0.00 46 1020.0
20260501150044 8 88 1.6 8.0 0.00 0.00 0.00 50 1020.0
20260501144542 7 89 4.8 12.9 0.00 0.00 0.00 53 1020.0
20260501143041 6 69 4.8 11.3 0.00 0.00 0.00 54 1019.9